Кривогаштани

Северная Македония     41°20′16″N   21°27′58″E
темп.,
°C
ветер,
м/с
пор.,
м/с
влажн.,
%
обл.,
%
осадки,
мм/ч
давл.,
гПа
погр.,
м
6 мая, чт
чт623:00+11зюз227274 0.0 101217
02:00+10юз11779 0.0 101214
05:00+8зсз11880 0.0 101411
08:00+13зсз11720 0.0 1015304
11:00+18ю12532 0.0 10151316
14:00+22юз453720 0.0 10132350
17:00+21зюз55422 0.0 10131286
20:00+14з115679 0.0 101311
7 мая, пт
пт723:00+11ююз1169100 0.0 101511
02:00+10зюз1176100 0.0 101511
05:00+9зсз1180100 0.0 101510
08:00+13зюз1169100 0.0 1015134
11:00+19ю3449100 0.0 1014833
14:00+22ююз343599 0.0 10111636
17:00+22ююз464499 0.0 10101654
20:00+17з245677 0.0 101193
8 мая, сб
сб823:00+12з11785 0.0 101211
02:00+11сз11824 0.0 101111
05:00+10с22816 0.0 101213
08:00+14ссв347178 0.0 1014470
11:00+14св546657 0.0 1015927
14:00+16ссв44584 0.0 1015979
17:00+16св44550 0.0 1015940
20:00+10св227266 0.0 101819
9 мая, вс
вс923:00+7ссв22803 0.0 102225
02:00+6с22820 0.0 102317
05:00+5ссв11845 0.0 102412
08:00+10св116049 0.0 1024357
11:00+16ю124738 0.0 10231073
14:00+19ююв435361 0.0 10221535
17:00+17ююв44617 0.0 1021991
20:00+11ююв33885 0.0 102344
10 мая, пн
пн1023:00+8ююв22925 0.0 102515
02:00+7юв119365 0.0 102510
05:00+6в00935 0.0 102410
08:00+11юз11781 0.0 1023337
11:00+17ю11580 0.0 1021903
14:00+21ююз22480 0.0 10191323
17:00+21ююз335177 0.0 10171093
20:00+14ююв228054 0.0 101814